DW6494 Weather Reports


Display with metric or nautical units.
time (UTC)temp
F
wind
direction
speed
MPH
gust
MPH
rain 1hr
in
rain 24hr
in
rain mn
in
humidity
%
barometer
mb
20260508192031 73 325 9.0 20.0 0.00 0.00 0.00 22 1016.0
20260508191533 72 5 4.0 10.0 0.00 0.00 0.00 24 1016.0
20260508191031 72 328 13.0 19.0 0.00 0.00 0.00 22 1016.0
20260508190529 72 31 13.0 19.0 0.00 0.00 0.00 24 1016.0
20260508190033 72 282 6.0 10.0 0.00 0.00 0.00 24 1016.0
20260508185532 72 357 7.0 12.0 0.00 0.00 0.00 24 1016.0
20260508185033 72 32 11.0 19.0 0.00 0.00 0.00 24 1016.0
20260508184531 72 339 9.0 16.0 0.00 0.00 0.00 26 1016.0
20260508184031 72 7 7.0 13.0 0.00 0.00 0.00 26 1016.0
20260508183531 72 1 10.0 17.0 0.00 0.00 0.00 24 1016.0
20260508183032 72 17 10.0 17.0 0.00 0.00 0.00 27 1016.0
20260508182531 71 14 8.0 17.0 0.00 0.00 0.00 27 1016.0
20260508182031 71 311 9.0 15.0 0.00 0.00 0.00 27 1016.0
20260508181532 71 295 5.0 9.0 0.00 0.00 0.00 28 1016.0
20260508181029 71 313 10.0 17.0 0.00 0.00 0.00 29 1016.0
20260508180531 71 1 5.0 12.0 0.00 0.00 0.00 28 1017.0
20260508180031 70 359 9.0 16.0 0.00 0.00 0.00 28 1017.0
20260508175533 70 285 7.0 12.0 0.00 0.00 0.00 27 1016.0
20260508175033 71 314 10.0 17.0 0.00 0.00 0.00 28 1017.0
20260508174533 70 338 9.0 18.0 0.00 0.00 0.00 27 1017.0
20260508174031 71 314 7.0 14.0 0.00 0.00 0.00 27 1017.0
20260508173531 71 337 8.0 12.0 0.00 0.00 0.00 25 1017.0
20260508173032 70 4 9.0 16.0 0.00 0.00 0.00 27 1017.0
20260508172532 70 317 1.0 6.0 0.00 0.00 0.00 29 1017.0
20260508172032 69 312 3.0 5.0 0.00 0.00 0.00 35 1017.0
20260508171533 69 335 4.0 8.0 0.00 0.00 0.00 36 1017.0
20260508171033 69 319 7.0 8.0 0.00 0.00 0.00 35 1017.0
20260508170533 69 354 0.0 3.0 0.00 0.00 0.00 41 1017.0
20260508170033 69 163 3.0 7.0 0.00 0.00 0.00 40 1017.0
20260508165532 69 138 3.0 5.0 0.00 0.00 0.00 42 1017.0
20260508165034 69 166 0.0 0.0 0.00 0.00 0.00 40 1017.0
20260508164533 69 117 0.0 0.0 0.00 0.00 0.00 42 1017.0
20260508164034 68 66 3.0 6.0 0.00 0.00 0.00 40 1017.0
20260508163533 68 227 1.0 3.0 0.00 0.00 0.00 44 1017.0
20260508163032 68 341 1.0 4.0 0.00 0.00 0.00 42 1017.0
20260508162533 68 249 0.0 2.0 0.00 0.00 0.00 43 1017.0
20260508162033 67 0 0.0 0.0 0.00 0.00 0.00 45 1017.0
20260508161534 67 334 2.0 4.0 0.00 0.00 0.00 43 1017.0
20260508161033 67 75 3.0 4.0 0.00 0.00 0.00 44 1017.0
20260508160533 67 0 0.0 0.0 0.00 0.00 0.00 45 1016.0
20260508160034 66 227 0.0 0.0 0.00 0.00 0.00 44 1016.0
20260508155531 65 18 3.0 5.0 0.00 0.00 0.00 42 1016.0
20260508155033 66 333 7.0 7.0 0.00 0.00 0.00 40 1016.0
20260508154535 66 315 2.0 4.0 0.00 0.00 0.00 41 1016.0
20260508154033 66 7 1.0 3.0 0.00 0.00 0.00 41 1016.0
20260508153531 66 150 3.0 4.0 0.00 0.00 0.00 42 1016.0
20260508153034 66 28 2.0 6.0 0.00 0.00 0.00 42 1016.0
20260508152532 65 293 0.0 1.0 0.00 0.00 0.00 42 1016.0
20260508152033 65 67 1.0 3.0 0.00 0.00 0.00 41 1016.0
20260508151531 64 344 2.0 5.0 0.00 0.00 0.00 44 1016.0
20260508151031 64 344 0.0 0.0 0.00 0.00 0.00 44 1016.0
20260508150531 63 335 4.0 5.0 0.00 0.00 0.00 46 1016.0
20260508150030 64 129 1.0 2.0 0.00 0.00 0.00 45 1016.0
20260508145532 63 0 0.0 0.0 0.00 0.00 0.00 45 1016.0
20260508145031 63 136 2.0 4.0 0.00 0.00 0.00 45 1016.0
20260508144533 63 130 0.0 0.0 0.00 0.00 0.00 47 1016.0
20260508144031 63 0 0.0 0.0 0.00 0.00 0.00 47 1016.0
20260508143531 63 24 3.0 4.0 0.00 0.00 0.00 48 1016.0
20260508143029 63 0 0.0 0.0 0.00 0.00 0.00 50 1016.0
20260508142531 63 100 1.0 2.0 0.00 0.00 0.00 50 1016.0
20260508142030 63 111 4.0 4.0 0.00 0.00 0.00 49 1016.0
20260508141533 62 0 0.0 0.0 0.00 0.00 0.00 48 1016.0
20260508141032 62 74 4.0 5.0 0.00 0.00 0.00 50 1016.0
20260508140529 60 48 1.0 2.0 0.00 0.00 0.00 53 1016.0
20260508140033 59 63 3.0 3.0 0.00 0.00 0.00 54 1016.0
20260508135534 58 83 3.0 4.0 0.00 0.00 0.00 50 1016.0
20260508135031 56 0 0.0 0.0 0.00 0.00 0.00 53 1016.0
20260508134531 55 0 0.0 0.0 0.00 0.00 0.00 55 1016.0
20260508134037 54 0 0.0 0.0 0.00 0.00 0.00 57 1016.0
20260508133530 53 0 0.0 0.0 0.00 0.00 0.00 59 1016.0
20260508133031 52 106 4.0 5.0 0.00 0.00 0.00 60 1016.0
20260508132534 51 74 4.0 4.0 0.00 0.00 0.00 63 1016.0
20260508132031 50 94 0.0 0.0 0.00 0.00 0.00 64 1016.0
20260508131532 50 91 2.0 4.0 0.00 0.00 0.00 67 1016.0
20260508131032 49 107 4.0 5.0 0.00 0.00 0.00 69 1016.0
20260508130531 49 0 0.0 0.0 0.00 0.00 0.00 70 1016.0
20260508130031 49 34 0.0 0.0 0.00 0.00 0.00 70 1016.0
20260508125534 48 0 0.0 0.0 0.00 0.00 0.00 72 1015.0
20260508125033 48 0 0.0 0.0 0.00 0.00 0.00 71 1015.0
20260508124532 48 0 0.0 0.0 0.00 0.00 0.00 71 1015.0
20260508124031 48 0 0.0 0.0 0.00 0.00 0.00 70 1015.0
20260508123531 49 0 0.0 0.0 0.00 0.00 0.00 67 1015.0
20260508123034 49 0 0.0 0.0 0.00 0.00 0.00 66 1015.0
20260508122531 49 0 0.0 0.0 0.00 0.00 0.00 65 1015.0
20260508122033 49 0 0.0 0.0 0.00 0.00 0.00 65 1015.0
20260508121531 50 54 3.0 4.0 0.00 0.00 0.00 64 1015.0
20260508121030 50 103 4.0 5.0 0.00 0.00 0.00 64 1015.0
20260508120532 50 107 2.0 3.0 0.00 0.00 0.00 64 1015.0
20260508120034 49 68 3.0 4.0 0.00 0.00 0.00 64 1015.0
20260508115531 49 0 0.0 0.0 0.00 0.00 0.00 64 1015.0
20260508115032 49 57 4.0 5.0 0.00 0.00 0.00 64 1015.0
20260508114531 49 0 0.0 0.0 0.00 0.00 0.00 63 1015.0
20260508114031 49 84 0.0 2.0 0.00 0.00 0.00 63 1015.0
20260508113531 49 0 0.0 0.0 0.00 0.00 0.00 63 1015.0
20260508113031 49 0 0.0 0.0 0.00 0.00 0.00 64 1015.0
20260508112533 49 0 1.0 1.0 0.00 0.00 0.00 63 1015.0
20260508112031 50 0 0.0 1.0 0.00 0.00 0.00 63 1015.0
20260508111531 50 53 3.0 4.0 0.00 0.00 0.00 62 1015.0
20260508111029 50 114 4.0 5.0 0.00 0.00 0.00 62 1015.0
20260508110531 50 127 4.0 5.0 0.00 0.00 0.00 62 1015.0
20260508110032 50 59 0.0 0.0 0.00 0.00 0.00 63 1015.0
20260508105530 50 37 2.0 3.0 0.00 0.00 0.00 62 1015.0
20260508105032 50 52 0.0 0.0 0.00 0.00 0.00 62 1014.0
20260508104529 50 32 2.0 2.0 0.00 0.00 0.00 62 1015.0
20260508104030 50 75 0.0 0.0 0.00 0.00 0.00 63 1015.0
20260508103530 51 0 0.0 0.0 0.00 0.00 0.00 61 1014.0
20260508103033 50 99 4.0 5.0 0.00 0.00 0.00 61 1014.0
20260508102532 50 68 4.0 4.0 0.00 0.00 0.00 63 1014.0
20260508102031 50 0 0.0 0.0 0.00 0.00 0.00 62 1014.0
20260508101530 50 0 0.0 0.0 0.00 0.00 0.00 62 1014.0
20260508101031 51 0 1.0 3.0 0.00 0.00 0.00 60 1014.0
20260508100533 51 6 3.0 3.0 0.00 0.00 0.00 60 1014.0
20260508100031 51 58 4.0 5.0 0.00 0.00 0.00 61 1014.0
20260508095531 51 120 5.0 5.0 0.00 0.00 0.00 59 1014.0
20260508095030 50 98 5.0 5.0 0.00 0.00 0.00 61 1014.0
20260508094530 50 97 4.0 4.0 0.00 0.00 0.00 62 1014.0
20260508094031 50 58 3.0 4.0 0.00 0.00 0.00 62 1014.0
20260508093531 50 0 0.0 0.0 0.00 0.00 0.00 62 1014.0
20260508093032 50 0 0.0 0.0 0.00 0.00 0.00 62 1014.0
20260508092531 51 72 1.0 3.0 0.00 0.00 0.00 61 1014.0
20260508092032 51 0 0.0 0.0 0.00 0.00 0.00 61 1014.0
20260508091531 51 98 5.0 5.0 0.00 0.00 0.00 60 1014.0
20260508091032 51 90 4.0 5.0 0.00 0.00 0.00 61 1014.0
20260508090531 51 91 5.0 5.0 0.00 0.00 0.00 62 1014.0
20260508090034 51 77 1.0 2.0 0.00 0.00 0.00 62 1014.0
20260508085532 52 0 0.0 0.0 0.00 0.00 0.00 62 1014.0
20260508085033 52 85 3.0 4.0 0.00 0.00 0.00 59 1014.0
20260508084532 52 80 0.0 0.0 0.00 0.00 0.00 57 1014.0
20260508084029 51 48 4.0 4.0 0.00 0.00 0.00 59 1014.0
20260508083529 52 53 3.0 4.0 0.00 0.00 0.00 58 1014.0
20260508083031 52 0 0.0 0.0 0.00 0.00 0.00 60 1014.0
20260508082531 52 85 5.0 5.0 0.00 0.00 0.00 60 1014.0
20260508082031 52 92 4.0 4.0 0.00 0.00 0.00 59 1014.0
20260508081531 52 89 6.0 6.0 0.00 0.00 0.00 59 1014.0
20260508081031 52 103 5.0 6.0 0.00 0.00 0.00 59 1014.0
20260508080531 52 59 3.0 4.0 0.00 0.00 0.00 58 1014.0
20260508080029 53 6 3.0 3.0 0.00 0.00 0.00 57 1014.0
20260508075531 53 9 0.0 1.0 0.00 0.00 0.00 58 1014.0
20260508075031 53 75 1.0 3.0 0.00 0.00 0.00 56 1014.0
20260508074531 54 0 0.0 0.0 0.00 0.00 0.00 56 1014.0
20260508074029 54 66 2.0 3.0 0.00 0.00 0.00 55 1014.0
20260508073531 55 73 1.0 3.0 0.00 0.00 0.00 54 1014.0
20260508073032 55 51 2.0 3.0 0.00 0.00 0.00 51 1014.0
20260508072529 54 0 0.0 0.0 0.00 0.00 0.00 51 1014.0
20260508072031 54 15 0.0 0.0 0.00 0.00 0.00 53 1014.0
20260508071531 54 64 0.0 1.0 0.00 0.00 0.00 55 1014.0
20260508071029 54 41 1.0 2.0 0.00 0.00 0.00 52 1014.0
20260508070531 54 78 4.0 4.0 0.00 0.00 0.00 55 1014.0
20260508070031 55 0 0.0 0.0 0.00 0.00 0.00 54 1014.0
20260508065530 55 83 0.0 0.0 0.00 0.00 0.00 53 1014.0
20260508065032 55 84 5.0 8.0 0.00 0.00 0.00 54 1014.0
20260508064532 56 109 0.0 0.0 0.00 0.00 0.00 52 1014.0
20260508064031 56 0 0.0 0.0 0.00 0.00 0.00 51 1014.0
20260508063531 56 0 0.0 0.0 0.00 0.00 0.00 47 1014.0
20260508063031 57 0 0.0 0.0 0.00 0.00 0.00 46 1014.0
20260508062532 57 0 0.0 0.0 0.00 0.00 0.00 46 1014.0
20260508062029 56 9 5.0 6.0 0.00 0.00 0.00 45 1014.0
20260508061530 56 0 4.0 5.0 0.00 0.00 0.00 46 1014.0
20260508061030 55 0 3.0 4.0 0.00 0.00 0.00 49 1014.0
20260508060532 55 0 0.0 0.0 0.00 0.00 0.00 51 1014.0
20260508060031 55 39 0.0 0.0 0.00 0.00 0.00 52 1014.0
20260508055529 55 0 0.0 0.0 0.00 0.00 0.00 51 1014.0
20260508055033 55 0 0.0 0.0 0.00 0.00 0.00 51 1014.0
20260508054533 56 59 3.0 4.0 0.00 0.00 0.00 51 1014.0
20260508054032 56 0 0.0 0.0 0.00 0.00 0.00 50 1014.0
20260508053531 56 0 0.0 0.0 0.00 0.00 0.00 50 1014.0
20260508053032 56 0 0.0 0.0 0.00 0.00 0.00 50 1014.0
20260508052529 57 0 0.0 0.0 0.00 0.00 0.00 50 1014.0
20260508052029 57 0 0.0 0.0 0.00 0.00 0.00 47 1014.0
20260508051529 57 0 0.0 0.0 0.00 0.00 0.00 47 1014.0
20260508051031 57 354 1.0 3.0 0.00 0.00 0.00 49 1014.0
20260508050532 58 4 0.0 2.0 0.00 0.00 0.00 46 1014.0
20260508050034 58 0 0.0 0.0 0.00 0.00 0.00 46 1014.0
20260508045529 58 13 3.0 5.0 0.00 0.00 0.00 45 1014.0
20260508045031 58 33 3.0 4.0 0.00 0.00 0.00 45 1014.0
20260508044529 58 0 0.0 0.0 0.00 0.00 0.00 45 1014.0
20260508044029 59 23 0.0 0.0 0.00 0.00 0.00 44 1014.0
20260508043529 59 45 4.0 4.0 0.00 0.00 0.00 44 1014.0
20260508043032 59 32 4.0 4.0 0.00 0.00 0.00 45 1014.0
20260508042529 59 43 4.0 4.0 0.00 0.00 0.00 44 1014.0
20260508042030 59 0 0.0 0.0 0.00 0.00 0.00 44 1014.0
20260508041532 60 29 4.0 4.0 0.00 0.00 0.00 44 1014.0
20260508041032 60 16 4.0 4.0 0.00 0.00 0.00 44 1014.0
20260508040531 60 27 5.0 5.0 0.00 0.00 0.00 43 1014.0
20260508040031 60 40 4.0 5.0 0.00 0.00 0.00 44 1014.0
20260508035532 60 35 4.0 5.0 0.00 0.00 0.00 44 1014.0
20260508035030 61 44 4.0 4.0 0.00 0.00 0.00 43 1014.0
20260508034530 61 53 3.0 4.0 0.00 0.00 0.00 44 1014.0
20260508034030 62 58 3.0 4.0 0.00 0.00 0.00 42 1014.0
20260508033531 62 54 2.0 3.0 0.00 0.00 0.00 42 1013.0
20260508033029 62 44 1.0 2.0 0.00 0.00 0.00 40 1013.0
20260508032532 63 31 4.0 4.0 0.00 0.00 0.00 38 1013.0
20260508032032 63 0 0.0 0.0 0.00 0.00 0.00 37 1013.0
20260508031531 63 0 0.0 0.0 0.00 0.00 0.00 38 1013.0
20260508031030 63 0 0.0 0.0 0.00 0.00 0.00 37 1013.0
20260508030530 63 0 0.0 0.0 0.00 0.00 0.00 35 1013.0
20260508030031 63 0 0.0 0.0 0.00 0.00 0.00 38 1013.0
20260508025530 64 0 0.0 0.0 0.00 0.00 0.00 36 1013.0
20260508025030 64 0 0.0 0.0 0.00 0.00 0.00 35 1013.0
20260508024530 65 0 0.0 0.0 0.00 0.00 0.00 34 1013.0
20260508024030 65 0 0.0 0.0 0.00 0.00 0.00 35 1013.0
20260508023529 66 332 6.0 9.0 0.00 0.00 0.00 34 1013.0
20260508023031 67 337 5.0 5.0 0.00 0.00 0.00 33 1013.0
20260508022529 69 354 7.0 8.0 0.00 0.00 0.00 32 1013.0
20260508022030 70 4 7.0 7.0 0.00 0.00 0.00 31 1013.0
20260508021531 72 357 7.0 8.0 0.00 0.00 0.00 28 1013.0
20260508021030 72 0 0.0 0.0 0.00 0.00 0.00 28 1013.0
20260508020529 73 342 0.0 1.0 0.00 0.00 0.00 27 1013.0
20260508020033 73 2 0.0 1.0 0.00 0.00 0.00 27 1013.0
20260508015530 73 4 1.0 4.0 0.00 0.00 0.00 25 1013.0
20260508015030 74 4 4.0 5.0 0.00 0.00 0.00 23 1013.0
20260508014530 75 349 6.0 7.0 0.00 0.00 0.00 22 1013.0
20260508014030 75 315 2.0 4.0 0.00 0.00 0.00 20 1013.0
20260508013529 74 296 2.0 3.0 0.00 0.00 0.00 20 1013.0
20260508013030 74 323 3.0 5.0 0.00 0.00 0.00 20 1013.0
20260508012530 73 347 3.0 5.0 0.00 0.00 0.00 22 1013.0
20260508012029 73 3 4.0 5.0 0.00 0.00 0.00 23 1013.0
20260508011532 72 14 5.0 6.0 0.00 0.00 0.00 23 1013.0
20260508011030 72 17 5.0 6.0 0.00 0.00 0.00 24 1013.0
20260508010530 72 351 4.0 5.0 0.00 0.00 0.00 24 1013.0
20260508010029 72 336 6.0 7.0 0.00 0.00 0.00 24 1013.0
20260508005530 72 335 4.0 6.0 0.00 0.00 0.00 22 1013.0
20260508005030 72 351 5.0 6.0 0.00 0.00 0.00 24 1013.0
20260508004532 72 24 7.0 9.0 0.00 0.00 0.00 23 1013.0
20260508004031 72 1 6.0 7.0 0.00 0.00 0.00 23 1013.0
20260508003531 73 343 8.0 9.0 0.00 0.00 0.00 23 1013.0
20260508003029 73 329 4.0 4.0 0.00 0.00 0.00 22 1013.0
20260508002529 73 350 0.0 0.0 0.00 0.00 0.00 21 1013.0
20260508002032 73 353 6.0 9.0 0.00 0.00 0.00 23 1013.0
20260508001531 73 342 5.0 9.0 0.00 0.00 0.00 23 1013.0
20260508001030 73 324 5.0 9.0 0.00 0.00 0.00 23 1013.0
20260508000531 73 335 4.0 6.0 0.00 0.00 0.00 22 1013.0
20260508000029 74 322 6.0 8.0 0.00 0.00 0.00 21 1013.0
20260507235530 74 320 4.0 8.0 0.00 0.00 0.00 22 1013.0
20260507235031 74 338 11.0 12.0 0.00 0.00 0.00 21 1013.0
20260507234530 74 348 5.0 8.0 0.00 0.00 0.00 21 1013.0
20260507234029 74 303 6.0 10.0 0.00 0.00 0.00 22 1014.0
20260507233529 74 20 11.0 15.0 0.00 0.00 0.00 21 1014.0
20260507233031 74 296 4.0 13.0 0.00 0.00 0.00 22 1014.0
20260507232530 74 310 7.0 13.0 0.00 0.00 0.00 21 1014.0
20260507232029 74 295 7.0 11.0 0.00 0.00 0.00 22 1014.0
20260507231531 74 199 2.0 6.0 0.00 0.00 0.00 22 1014.0
20260507231029 74 285 3.0 7.0 0.00 0.00 0.00 22 1014.0
20260507230529 74 335 7.0 10.0 0.00 0.00 0.00 21 1014.0
20260507230029 74 326 6.0 9.0 0.00 0.00 0.00 21 1014.0
20260507225530 74 302 13.0 20.0 0.00 0.00 0.00 21 1014.0
20260507225029 74 286 6.0 12.0 0.00 0.00 0.00 21 1014.0
20260507224531 74 22 9.0 20.0 0.00 0.00 0.00 22 1014.0
20260507224029 74 41 4.0 7.0 0.00 0.00 0.00 22 1014.0
20260507223529 74 299 9.0 18.0 0.00 0.00 0.00 22 1014.0
20260507223030 74 288 11.0 18.0 0.00 0.00 0.00 22 1014.0
20260507222529 74 325 8.0 12.0 0.00 0.00 0.00 21 1014.0
20260507222030 74 333 5.0 8.0 0.00 0.00 0.00 22 1014.0
20260507221529 74 324 5.0 6.0 0.00 0.00 0.00 22 1014.0
20260507221030 74 293 3.0 6.0 0.00 0.00 0.00 21 1014.0
20260507220529 74 237 1.0 5.0 0.00 0.00 0.00 22 1014.0
20260507220032 74 315 7.0 14.0 0.00 0.00 0.00 22 1014.0
20260507215530 75 318 7.0 9.0 0.00 0.00 0.00 20 1014.0
20260507215029 75 268 4.0 4.0 0.00 0.00 0.00 21 1014.0
20260507214529 75 210 1.0 3.0 0.00 0.00 0.00 22 1014.0
20260507214031 75 44 0.0 2.0 0.00 0.00 0.00 19 1014.0
20260507213531 75 267 2.0 4.0 0.00 0.00 0.00 22 1015.0
20260507213029 75 127 3.0 9.0 0.00 0.00 0.00 23 1015.0
20260507212530 74 133 3.0 8.0 0.00 0.00 0.00 24 1015.0
20260507212031 74 160 12.0 14.0 0.00 0.00 0.00 21 1015.0
20260507211529 74 289 3.0 8.0 0.00 0.00 0.00 21 1015.0
20260507211029 74 169 0.0 0.0 0.00 0.00 0.00 24 1015.0
20260507210530 73 307 5.0 10.0 0.00 0.00 0.00 21 1015.0
20260507210032 73 236 4.0 5.0 0.00 0.00 0.00 23 1015.0
20260507205531 72 45 4.0 5.0 0.00 0.00 0.00 21 1015.0
20260507205032 72 336 3.0 5.0 0.00 0.00 0.00 21 1015.0
20260507204530 71 222 4.0 4.0 0.00 0.00 0.00 23 1015.0
20260507204031 71 136 5.0 7.0 0.00 0.00 0.00 22 1015.0
20260507203532 71 114 6.0 8.0 0.00 0.00 0.00 23 1015.0
20260507203031 71 123 9.0 14.0 0.00 0.00 0.00 22 1016.0
20260507202532 71 7 3.0 8.0 0.00 0.00 0.00 23 1016.0
20260507202031 71 225 0.0 1.0 0.00 0.00 0.00 22 1016.0
20260507201530 71 62 5.0 7.0 0.00 0.00 0.00 23 1016.0
20260507201030 71 168 6.0 10.0 0.00 0.00 0.00 22 1016.0
20260507200530 70 208 1.0 3.0 0.00 0.00 0.00 26 1016.0
20260507200031 69 337 3.0 4.0 0.00 0.00 0.00 23 1016.0
20260507195531 69 152 7.0 9.0 0.00 0.00 0.00 23 1016.0
20260507195031 69 153 9.0 14.0 0.00 0.00 0.00 23 1016.0
20260507194533 69 54 6.0 9.0 0.00 0.00 0.00 23 1016.0
20260507194032 69 153 7.0 12.0 0.00 0.00 0.00 23 1016.0
20260507193532 68 163 8.0 11.0 0.00 0.00 0.00 23 1016.0
20260507193029 68 87 8.0 13.0 0.00 0.00 0.00 23 1016.0
20260507192530 68 91 6.0 11.0 0.00 0.00 0.00 24 1016.0